Ana Sayfa
METAR-TAF:

METAR-TAF

Havaalanları :

Brooks Field

Marshall, Michigan, Amerika Birleşik Devletleri

Enlem: 42-15-04N, Boylam: 084-57-20W, yükseklik: 287 m

Güncel hava durumu gözlemi

Rapor saat 14:35 UTC de 15 dakika önce yapıldı.
Sakin rüzgar
Sıcaklık -1°C
Nem 69%
Basınç 1022 hPa
Görüş mesafesi: 16.1 km
3000 ft yükseklikte çok bulutlu

METAR: KRMY 291435Z AUTO 00000KT 10SM OVC030 M01/M06 A3019 RMK AO2 T10081061

Saat: 09:50 (14:50 UTC)


TAF: eksik

4.000'den fazla havaalanı için hava durumu gözlemleri ve tahminleri (METAR ve TAF raporları).

Kullanılabilir istasyonlar harita üzerinde sarı ve kırmızı noktalarla gösterilir.

İstasyonun adını görmek için fareyi noktanın üzerinde gezdirin.

Sonrasında hava gözlem ve tahminlerini görmek için tıklayın.

Haritayı değiştirmek için: yaklaştırmak için siyah artı işaretli yeşil düğmeye ve uzaklaştırmak için de eksi işaretli düğmeye hızla tıklayın; bitişik haritalar için yeşil okları kullanın.


METAR-TAF: